CZ-6A DEB, 60663

Orbit data source: Space-Track

CZ-6A DEB, 60663 is space debris in LEO originally from a launch on Tue, 06 Aug 2024 UTC launched from the Taiyaun Space Center, China (TSC). Debris objects in space refer to the collection of defunct objects orbiting the Earth. Examples of debris include non-operational satellites, rocket bodies, and fragments generated from explosions, collisions, or faulty payload assembly.

Loading next visibility...
Identifier
60663, 2024-140BQ
Orbit
LEO
Country
Flag of CNCN / PRC
Related business
Manufacturer
SAST
Mission
Spacecraft
Bus & Motor
Unknown
Mass
Unknown
Launch date (UTC)
2024-08-06 (2 years ago)
Launch vehicle
Unknown
Launch site
Taiyaun Space Center, China (TSC)
Object type
Payload
Rocket body
Debris
Shape & HBR
Unknown shape, 1.0 m
Radar Cross Section
Large (>1 m²)

Expand to show TLE details & history
Last TLE update: 15 hours ago

TLE from 15 hours ago
0 CZ-6A DEB
1 60663U 24140BQ  26171.35083642  .00000201  00000-0  92409-4 0  9991
2 60663  89.1020 282.7310 0058081 196.3519 163.5798 14.16630813 96313
Epoch: 2026-06-20T08:25Z
TLE epoch observation values (Epoch: 2026-06-20T08:25:12.266Z)
Latitude
0.00001°
Longitude
-112.13682°
Altitude
880.042 km
Speed
7.392 km/s
True Right ascension
18h 50m 55s
True Declination
0° 00' 00"
Sunlit
Object was in full shadow at epoch
Visualization orbit readout
Latitude
Unknown
Longitude
Unknown
Altitude
Unknown
Speed
Unknown
Apparent Right ascension
Unknown
Apparent Declination
Unknown
Sunlit
N/A
Visualization observer readout
Local Sidereal Time
10:19:07
Azimuth
Unknown
Elevation
Unknown
Doppler factor
Unknown
Orbital elements
Apogee altitude
875.612 km
Perigee altitude
791.838 km
Semi-major axis
7,211.862 km
Eccentricity
0.00581
Inclination
89.102°
RAAN
282.731°
Arg. of periapsis
196.3519°
True anomaly
163.76664°
Mean anomaly
163.5798°
Eccentric anomaly
163.67335°
Mean motion
3.54382 °/min
Orbital period
101.59 mins
BSTAR
0.000092409
Loading maneuver chart data...
Computing Atmospheric mass density...
Loading historical data...
Loading historical data...
Loading historical data...
Loading historical data...
Loading historical data...
Loading historical data...
Loading historical data...

Documentation

Showing up to 5 results
|